DH4SBM Weather Reports


time (UTC)temp
C
wind
direction
speed
KPH
gust
KPH
rain 1hr
cm
rain 24hr
cm
rain mn
cm
humidity
%
barometer
mb
20260506204541 10 202 4.8 12.9 0.15 0.33 0.33 93 1010.5
20260506203541 10 202 6.4 12.9 0.15 0.33 0.33 93 1010.5
20260506202541 10 225 6.4 16.1 0.15 0.33 0.33 93 1010.2
20260506201541 11 202 4.8 9.7 0.15 0.30 0.30 93 1010.1
20260506200541 11 202 6.4 12.9 0.18 0.28 0.28 92 1010.2
20260506195541 11 180 6.4 14.5 0.18 0.25 0.25 92 1010.1
20260506194541 11 180 6.4 12.9 0.15 0.20 0.20 92 1009.9
20260506193541 11 202 6.4 11.3 0.13 0.18 0.18 92 1009.8
20260506192541 11 202 4.8 14.5 0.13 0.15 0.15 92 1009.6
20260506191541 11 202 6.4 17.7 0.10 0.15 0.15 91 1009.4
20260506190541 11 180 6.4 12.9 0.08 0.10 0.10 91 1009.4
20260506185541 11 202 4.8 14.5 0.05 0.08 0.08 91 1009.2
20260506184541 11 202 6.4 16.1 0.05 0.05 0.05 91 1009.0
20260506183544 11 202 8.0 16.1 0.05 0.05 0.05 90 1009.0
20260506182544 12 180 6.4 16.1 0.03 0.05 0.05 90 1008.9
20260506181544 12 202 4.8 12.9 0.03 0.05 0.05 90 1008.7
20260506180544 12 202 4.8 14.5 0.00 0.03 0.03 90 1008.7
20260506175544 12 202 3.2 8.0 0.03 0.08 0.03 90 1008.7
20260506174544 12 225 3.2 8.0 0.03 0.08 0.03 89 1008.5
20260506173544 12 225 4.8 11.3 0.03 0.08 0.03 89 1008.5
20260506172544 12 225 4.8 12.9 0.03 0.08 0.03 89 1008.4
20260506171544 12 225 4.8 9.7 0.03 0.08 0.03 89 1008.2
20260506170546 12 225 3.2 8.0 0.03 0.08 0.03 89 1008.1
20260506165546 12 225 3.2 8.0 0.00 0.08 0.00 88 1008.2
20260506164544 12 248 6.4 11.3 0.00 0.08 0.00 87 1008.2
20260506163544 12 248 8.0 17.7 0.00 0.08 0.00 87 1008.3
20260506162544 12 248 8.0 17.7 0.00 0.08 0.00 86 1008.3
20260506161546 12 248 8.0 17.7 0.00 0.08 0.00 87 1008.2
20260506160546 12 248 8.0 14.5 0.00 0.08 0.00 87 1008.2
20260506155546 12 248 8.0 16.1 0.00 0.08 0.00 87 1008.1
20260506154546 12 270 4.8 12.9 0.00 0.08 0.00 87 1008.0
20260506153546 12 270 4.8 12.9 0.00 0.08 0.00 87 1008.0
20260506152546 12 270 6.4 14.5 0.00 0.08 0.00 87 1008.0
20260506151546 12 292 6.4 19.3 0.00 0.08 0.00 87 1007.8
20260506150546 12 292 11.3 22.5 0.00 0.08 0.00 87 1007.7
20260506145546 12 292 12.9 22.5 0.00 0.13 0.00 87 1007.6
20260506144546 12 292 12.9 24.1 0.00 0.13 0.00 86 1007.5
20260506143546 13 270 17.7 33.8 0.00 0.13 0.00 85 1007.6
20260506142544 13 270 19.3 30.6 0.00 0.13 0.00 82 1007.6
20260506141544 14 270 17.7 35.4 0.00 0.13 0.00 78 1007.5
20260506140544 16 270 8.0 14.5 0.00 0.13 0.00 76 1007.1
20260506135544 16 270 6.4 12.9 0.00 0.23 0.00 71 1007.0
20260506134544 16 292 4.8 11.3 0.00 0.23 0.00 71 1006.9
20260506133544 17 292 6.4 11.3 0.00 0.23 0.00 69 1006.8
20260506132544 17 292 4.8 9.7 0.00 0.23 0.00 70 1006.8
20260506131544 17 315 3.2 8.0 0.00 0.23 0.00 67 1006.7
20260506130544 17 315 0.0 1.6 0.00 0.23 0.00 65 1006.6
20260506125544 17 315 3.2 6.4 0.00 0.43 0.00 65 1006.5
20260506124544 18 180 1.6 6.4 0.00 0.43 0.00 64 1006.5
20260506123735 18 135 1.6 6.4 0.00 0.43 0.00 62 1006.4
20260506122735 18 135 3.2 6.4 0.00 0.43 0.00 64 1006.6
20260506121735 18 112 4.8 11.3 0.00 0.43 0.00 65 1006.5
20260506120735 18 112 4.8 12.9 0.00 0.43 0.00 66 1006.7
20260506115735 18 112 6.4 14.5 0.00 0.43 0.00 67 1006.8
20260506114735 18 112 4.8 12.9 0.00 0.43 0.00 65 1006.8
20260506113735 18 158 3.2 8.0 0.00 0.43 0.00 64 1006.6
20260506112735 18 180 3.2 8.0 0.00 0.43 0.00 65 1006.7
20260506111735 18 202 3.2 9.7 0.00 0.43 0.00 66 1006.8
20260506110735 18 202 1.6 6.4 0.00 0.43 0.00 64 1007.1
20260506105735 17 270 4.8 9.7 0.00 0.43 0.00 66 1007.1
20260506104735 17 22 4.8 9.7 0.00 0.43 0.00 68 1007.1
20260506103735 17 22 3.2 11.3 0.00 0.43 0.00 68 1007.2
20260506102735 17 338 4.8 12.9 0.00 0.43 0.00 68 1007.4
20260506101735 17 360 6.4 11.3 0.00 0.43 0.00 69 1007.4
20260506100733 17 360 4.8 11.3 0.00 0.43 0.00 69 1007.4
20260506095733 17 158 1.6 8.0 0.00 0.43 0.00 66 1007.5
20260506094734 17 202 3.2 8.0 0.00 0.43 0.00 65 1007.6
20260506093734 17 270 3.2 9.7 0.00 0.43 0.00 65 1007.5
20260506092734 17 248 3.2 9.7 0.00 0.43 0.00 65 1007.6
20260506091540 17 158 1.6 6.4 0.00 0.43 0.00 65 1007.5
20260506090540 17 180 1.6 9.7 0.00 0.43 0.00 64 1007.5
20260506085540 17 180 1.6 9.7 0.00 0.43 0.00 69 1007.5
20260506084540 17 225 4.8 8.0 0.00 0.43 0.00 69 1007.6
20260506083540 16 338 3.2 6.4 0.00 0.43 0.00 70 1007.7
20260506082540 16 270 3.2 8.0 0.00 0.43 0.00 71 1007.7
20260506081538 16 248 4.8 11.3 0.00 0.43 0.00 72 1007.7
20260506080538 16 180 4.8 12.9 0.00 0.43 0.00 73 1007.8
20260506072538 14 180 3.2 12.9 0.00 0.43 0.00 82 1007.8
20260506071538 13 158 3.2 6.4 0.00 0.43 0.00 82 1007.8
20260506070538 13 180 1.6 6.4 0.00 0.43 0.00 83 1007.7
20260506061827 12 180 1.6 8.0 0.00 0.43 0.00 91 1008.0
20260506060826 11 158 0.0 3.2 0.00 0.43 0.00 92 1008.0
20260506060542 11 158 0.0 3.2 0.00 0.43 0.00 92 1008.0
20260506050542 10 0 0.0 0.0 0.00 0.43 0.00 91 1008.0
20260506044542 10 0 0.0 0.0 0.00 0.43 0.00 91 1008.0
20260506043542 10 180 0.0 1.6 0.00 0.43 0.00 91 1008.0
20260506042542 10 180 1.6 3.2 0.00 0.43 0.00 91 1008.0
20260506041542 10 180 1.6 6.4 0.00 0.43 0.00 91 1008.1
20260506040542 10 180 1.6 4.8 0.00 0.43 0.00 91 1008.2
20260506035542 10 180 1.6 4.8 0.00 0.43 0.00 90 1008.2
20260506034542 10 180 1.6 4.8 0.00 0.43 0.00 90 1008.2
20260506033542 10 180 0.0 1.6 0.00 0.43 0.00 90 1008.2
20260506032542 10 180 1.6 4.8 0.00 0.43 0.00 90 1008.1
20260506031542 10 180 0.0 3.2 0.00 0.43 0.00 90 1008.1
20260506030542 10 0 0.0 0.0 0.00 0.43 0.00 90 1008.1
20260506025542 10 0 0.0 0.0 0.00 0.43 0.00 90 1008.2
20260506024541 11 180 0.0 3.2 0.00 0.43 0.00 90 1008.2
20260506023542 11 180 3.2 9.7 0.00 0.43 0.00 91 1008.4
20260506022541 11 180 3.2 6.4 0.00 0.43 0.00 91 1008.8
20260506021541 11 158 3.2 6.4 0.00 0.43 0.00 91 1008.7
20260506020541 11 180 3.2 9.7 0.00 0.43 0.00 90 1008.7
20260506015541 11 180 1.6 4.8 0.00 0.43 0.00 91 1008.7
20260506014541 11 180 4.8 8.0 0.00 0.43 0.00 91 1008.7
20260506013541 11 202 4.8 9.7 0.00 0.43 0.00 91 1008.6
20260506012541 11 180 3.2 8.0 0.00 0.43 0.00 91 1008.7
20260506011541 11 180 4.8 9.7 0.00 0.43 0.00 91 1008.6
20260506010541 11 180 4.8 8.0 0.00 0.43 0.00 91 1008.7
20260506005541 11 180 3.2 8.0 0.00 0.43 0.00 91 1008.7
20260506004541 11 180 3.2 8.0 0.00 0.43 0.00 91 1008.7
20260506003543 11 158 3.2 8.0 0.00 0.43 0.00 91 1008.8
20260506002543 11 158 1.6 8.0 0.00 0.43 0.00 91 1008.9
20260506001544 11 180 1.6 8.0 0.00 0.43 0.00 91 1009.0
20260506000543 11 180 1.6 4.8 0.00 0.43 0.00 91 1009.2
20260505235543 11 180 3.2 8.0 0.00 0.43 0.00 91 1009.2
20260505234543 11 180 3.2 9.7 0.00 0.43 0.00 91 1009.3
20260505233543 11 180 3.2 8.0 0.00 0.43 0.00 91 1009.4
20260505232543 11 180 3.2 6.4 0.00 0.43 0.00 92 1009.3
20260505231543 11 202 3.2 9.7 0.00 0.43 0.00 92 1009.3
20260505230543 11 202 4.8 8.0 0.00 0.43 0.00 92 1009.3
20260505225544 11 180 6.4 11.3 0.00 0.43 0.00 92 1009.4
20260505224544 11 180 4.8 9.7 0.00 0.43 0.00 92 1009.4
20260505223544 11 180 4.8 11.3 0.00 0.43 0.00 92 1009.5
20260505222544 12 158 3.2 8.0 0.00 0.43 0.00 92 1009.4
20260505221544 12 180 1.6 4.8 0.00 0.43 0.00 92 1009.2
20260505220544 12 180 1.6 6.4 0.00 0.43 0.00 92 1009.3
20260505215543 12 202 3.2 6.4 0.00 0.43 0.43 92 1009.3
20260505214543 12 202 1.6 4.8 0.00 0.43 0.43 92 1009.5
20260505213543 12 202 1.6 3.2 0.00 0.43 0.43 92 1009.5
20260505212543 12 202 3.2 4.8 0.00 0.43 0.43 92 1009.5
20260505211543 12 202 1.6 6.4 0.00 0.43 0.43 91 1009.5
20260505210543 12 202 3.2 6.4 0.00 0.43 0.43 91 1009.5